Location: Gorizia
(45.9500°N, 13.6330°E)
Time: 09:32:08
(UTC+02:00)

ISS - Visible Passes

Search period start: 08 May 2021 00:00
Search period end: 18 May 2021 00:00
Orbit: 418 x 421 km, 51.6° (Epoch: 08 May)

Date Brightness Start Highest point End Pass type
(mag) Time Alt. Az. Time Alt. Az. Time Alt. Az.
08 May -2.6 02:49:24 40° NNW 02:49:37 40° NNW 02:52:50 10° ENE visible
08 May -1.9 04:23:54 10° WNW 04:26:57 30° N 04:30:01 10° ENE visible
09 May -1.9 02:03:27 30° NE 02:03:27 30° NE 02:05:25 10° ENE visible
09 May -1.9 03:36:23 10° WNW 03:39:23 29° N 03:42:25 10° ENE visible
10 May -0.9 01:17:26 14° ENE 01:17:26 14° ENE 01:18:00 10° ENE visible
10 May -1.9 02:50:22 22° NW 02:51:48 31° N 02:54:52 10° ENE visible
10 May -2.3 04:25:57 10° WNW 04:29:10 38° NNE 04:32:22 10° E visible
11 May -2.1 02:04:21 34° N 02:04:21 34° N 02:07:23 10° ENE visible
11 May -2.0 03:38:30 10° WNW 03:41:37 33° N 03:44:43 10° ENE visible
12 May -1.5 01:18:16 24° NE 01:18:16 24° NE 01:19:55 10° ENE visible
12 May -1.8 02:51:12 11° WNW 02:54:03 30° N 02:57:06 10° ENE visible
12 May -3.3 04:27:53 10° WNW 04:31:15 67° NNE 04:34:37 10° ESE visible
13 May -0.9 00:32:07 13° NE 00:32:07 13° NE 00:32:30 10° ENE visible
13 May -1.8 02:05:02 21° NW 02:06:27 29° N 02:09:30 10° ENE visible
13 May -2.8 03:40:28 10° WNW 03:43:46 49° NNE 03:47:03 10° E visible
14 May -1.9 01:18:38 30° NNW 01:18:53 30° N 01:21:56 10° ENE visible
14 May -2.3 02:53:01 10° WNW 02:56:14 39° NNE 02:59:26 10° E visible
14 May -3.7 04:29:50 10° WNW 04:33:10 55° SSW 04:36:28 10° SE visible
14 May -1.9 21:16:14 10° SSE 21:17:56 13° SE 21:19:37 10° ESE visible
14 May -3.9 22:50:53 10° WSW 22:54:15 80° SSE 22:55:40 32° ENE visible
15 May -2.0 00:28:11 10° WNW 00:31:18 34° N 00:34:26 10° ENE visible
15 May -2.0 02:05:34 10° WNW 02:08:41 33° N 02:11:47 10° ENE visible
15 May -3.9 03:42:22 10° WNW 03:45:45 85° SSW 03:49:08 10° ESE visible
15 May -3.7 22:03:35 10° SW 22:06:52 51° SE 22:10:09 10° ENE visible
15 May -2.4 23:40:34 10° W 23:43:46 40° NNW 23:46:58 10° NE visible
16 May -1.8 01:18:03 10° WNW 01:21:06 30° N 01:24:09 10° ENE visible
16 May -3.4 02:54:56 10° WNW 02:58:18 67° NNE 03:01:40 10° ESE visible
16 May -2.5 04:32:10 10° W 04:34:52 22° SW 04:37:33 10° S visible
16 May -3.0 21:16:28 10° SSW 21:19:30 32° SE 21:22:34 10° ENE visible
16 May -2.9 22:52:56 10° W 22:56:14 51° NNW 22:59:32 10° ENE visible
17 May -1.7 00:30:30 10° WNW 00:33:31 29° N 00:36:32 10° ENE visible
17 May -2.8 02:07:31 10° WNW 02:10:49 49° NNE 02:14:06 10° E visible
17 May -3.2 03:45:05 14° W 03:47:34 34° SW 03:50:40 10° SSE visible
17 May -3.5 22:05:24 10° WSW 22:08:45 70° NNW 22:12:06 10° ENE visible
17 May -1.8 23:42:53 10° WNW 23:45:56 30° N 23:48:59 10° ENE visible
